SL-6 R/B(2), 23645

Orbit data source: Space-Track

SL-6 R/B(2), 23645 is space debris originally from a launch on Wed, 09 Aug 1995 UTC launched from the Plesetsk Missile And Space Complex (PKMTR). Debris objects in space refer to the collection of defunct objects orbiting the Earth. Examples of debris include non-operational satellites, rocket bodies, and fragments generated from explosions, collisions, or faulty payload assembly.

Loading next visibility...
Identifier
23645, 1995-042D
Orbit
Molniya
Country
Flag of CISCIS
Related business
Manufacturer
RKKE
Mission
Spacecraft
Bus & Motor
BLOK-L, Unknown motor
Mass
900 kg wet, 900 kg dry
Launch date (UTC)
1995-08-09 (31 years ago)
Launch vehicle
Unknown
Launch site
Plesetsk Missile And Space Complex (PKMTR)
Object type
Payload
Rocket body
Debris
Shape & HBR
Cyl, Unknown HBR
Radar Cross Section
7.275 m², Large (>1 m²)

Expand to show TLE details & history
Last TLE update: 2 weeks ago

TLE from 2 weeks ago
0 SL-6 R/B(2)
1 23645U 95042D   26152.02337491  .00000654  00000-0  00000-0 0  9990
2 23645  64.8395 316.1022 7012460 271.1641  16.3599  1.99195229221605
Epoch: 2026-06-01T00:33Z
TLE epoch observation values (Epoch: 2026-06-01T00:33:39.592Z)
Latitude
0.00056°
Longitude
58.11776°
Altitude
6,970.623 km
Speed
6.692 km/s
True Right ascension
21h 04m 11s
True Declination
0° 00' 02"
Sunlit
Object was in daylight at epoch
Visualization orbit readout
Latitude
Unknown
Longitude
Unknown
Altitude
Unknown
Speed
Unknown
Apparent Right ascension
Unknown
Apparent Declination
Unknown
Sunlit
N/A
Visualization observer readout
Local Sidereal Time
11:19:28
Azimuth
Unknown
Elevation
Unknown
Doppler factor
Unknown
Orbital elements
Apogee altitude
39,012.502 km
Perigee altitude
1,592.865 km
Semi-major axis
26,680.821 km
Eccentricity
0.70125
Inclination
64.8395°
RAAN
316.1022°
Arg. of periapsis
271.1641°
True anomaly
88.68465°
Mean anomaly
16.3599°
Eccentric anomaly
44.54267°
Mean motion
0.49802 °/min
Orbital period
722.87 mins
BSTAR
0
Loading maneuver chart data...
Computing Atmospheric mass density...
Loading historical data...
Loading historical data...
Loading historical data...
Loading historical data...
Loading historical data...
Loading historical data...
Loading historical data...
Other satellites on launch #42 in the year 1995 (1995-08-09 UTC)

Documentation

Showing up to 5 results
|